Milford, UT

6:23 AM MDT on August 19, 2017 (GMT -0600)
Milford Municipal

Weather History for KMLF - January, 2013

Change the Weather History Date:

Saturday, January 12, 2013

  Actual Average Record
Temperature  
Mean Temperature 3 °F -  
Max Temperature 15 °F 38 °F 53 °F (2000)
Min Temperature -9 °F 18 °F -9 °F (2013)
Degree Days  
Heating Degree Days 62    
Moisture  
Dew Point -3 °F    
Average Humidity 77    
Maximum Humidity 87    
Minimum Humidity 59    
Precipitation  
Precipitation 0.02 in - - ()
Sea Level Pressure  
Sea Level Pressure 30.15 in    
Wind  
Wind Speed 7 mph (SSW)    
Max Wind Speed 13 mph    
Max Gust Speed -    
Visibility 7 miles    
Events Snow    
Averages and records for this station are not official NWS values.
T = Trace of Precipitation, MM = Missing Value Source: NWS Daily Summary

Daily Weather History Graph

Daily Weather History Graph

Search for Another Location

Airport or City:

Trip Planner

Search our weather history database for the weather conditions in past years. The results will help you decide how hot, cold, wet, or windy it might be!

Date:

Astronomy

Jan. 12, 2013 Rise Set
Actual Time 7:48 AM MST 5:32 PM MST
Civil Twilight 7:19 AM MST 6:01 PM MST
Nautical Twilight 6:46 AM MST 6:34 PM MST
Astronomical Twilight 6:15 AM MST 7:06 PM MST
Moon 8:11 AM MST (1/12) 7:04 PM MST (1/12)
Length of Visible Light 10h 42m
Length of Day
9h 43m
New Moon, 1% of the Moon is Illuminated
Jan 12
New Moon
Jan 18
First Quarter
Jan 26
Full
Feb 3
Last Quarter
Feb 10
New

Hourly Weather History & Observations

Time (MST) Temp. Windchill Dew Point Humidity Pressure Visibility Wind Dir Wind Speed Gust Speed Precip Events Conditions
12:52 AM -6.0 °F -20.1 °F -9.9 °F 83% 30.14 in 10.0 mi South 6.9 mph - N/A   Clear
1:52 AM -6.0 °F -22.6 °F -11.9 °F 75% 30.14 in 10.0 mi WSW 9.2 mph - N/A   Clear
2:52 AM -9.0 °F -23.8 °F -13.0 °F 83% 30.17 in 10.0 mi SSW 6.9 mph - N/A   Clear
3:52 AM -6.0 °F -20.1 °F -9.9 °F 83% 30.14 in 10.0 mi South 6.9 mph - N/A   Overcast
4:52 AM -2.9 °F -17.7 °F -9.0 °F 75% 30.14 in 10.0 mi WSW 8.1 mph - N/A   Mostly Cloudy
5:33 AM -9.4 °F -25.6 °F -14.8 °F 77% 29.93 in 10.0 mi South 8.1 mph - N/A   Overcast
5:52 AM -8.0 °F -22.5 °F -14.1 °F 75% 30.19 in 6.0 mi South 6.9 mph - 0.00 in Snow Light Snow
5:59 AM -7.6 °F -20.6 °F -13.0 °F 77% 29.94 in 4.0 mi South 5.8 mph - 0.00 in Snow Light Snow
6:17 AM -9.4 °F -22.7 °F -14.8 °F 77% 29.94 in 8.0 mi South 5.8 mph - 0.00 in   Overcast
6:52 AM -6.0 °F -20.1 °F -11.0 °F 79% 30.22 in 7.0 mi SW 6.9 mph - 0.00 in Snow Light Snow
7:11 AM -4.0 °F -19.0 °F -9.4 °F 78% 29.96 in 7.0 mi SW 8.1 mph - 0.00 in Snow Light Snow
7:52 AM -4.0 °F -19.0 °F -8.0 °F 83% 30.26 in 4.0 mi South 8.1 mph - 0.00 in Snow Light Snow
8:12 AM -5.8 °F -23.4 °F -11.2 °F 77% 29.98 in 4.0 mi South 10.4 mph - 0.00 in Snow Light Snow
8:45 AM -2.2 °F -14.2 °F -7.6 °F 78% 29.99 in 2.5 mi South 5.8 mph - 0.00 in Snow Light Snow
8:52 AM -2.9 °F -16.5 °F -8.0 °F 79% 30.27 in 2.0 mi South 6.9 mph - 0.00 in Snow Light Snow
9:16 AM -2.2 °F -16.8 °F -7.6 °F 78% 30.00 in 1.8 mi South 8.1 mph - 0.01 in Snow Light Snow
9:49 AM 1.0 °F -11.7 °F -2.9 °F 83% 30.27 in 2.0 mi South 6.9 mph - 0.01 in Snow Light Snow
10:01 AM 1.4 °F -11.3 °F -2.2 °F 85% 30.01 in 2.0 mi South 6.9 mph - 0.00 in Snow Light Snow
10:09 AM 1.4 °F -9.9 °F -2.2 °F 85% 30.01 in 1.5 mi South 5.8 mph - 0.01 in Snow Light Snow
10:21 AM 1.4 °F -11.3 °F -2.2 °F 85% 30.01 in 2.0 mi South 6.9 mph - 0.01 in Snow Light Snow
10:33 AM 3.2 °F -9.1 °F -2.2 °F 78% 30.01 in 3.0 mi SSW 6.9 mph - 0.01 in   Haze
10:52 AM 3.9 °F -8.2 °F -0.9 °F 80% 30.27 in 5.0 mi SSW 6.9 mph - 0.01 in Snow Light Snow
11:52 AM 6.1 °F -2.8 °F 1.0 °F 80% 30.27 in 6.0 mi SSW 4.6 mph - 0.00 in   Haze
12:19 PM 8.6 °F - 1.4 °F 73% 30.00 in 6.0 mi Calm Calm - N/A   Haze
12:52 PM 10.0 °F - 3.0 °F 73% 30.25 in 3.0 mi Calm Calm - 0.00 in Snow Light Snow
1:21 PM 12.2 °F - 5.0 °F 73% 29.98 in 8.0 mi Calm Calm - 0.00 in   Overcast
1:52 PM 14.0 °F 5.1 °F 6.1 °F 71% 30.22 in 9.0 mi NNE 5.8 mph - 0.00 in Snow Light Snow
2:52 PM 15.1 °F 1.1 °F 8.1 °F 74% 30.25 in 10.0 mi North 12.7 mph - 0.00 in   Clear
3:52 PM 14.0 °F 1.2 °F 7.0 °F 74% 30.24 in 10.0 mi North 10.4 mph - N/A   Clear
4:52 PM 12.9 °F -0.2 °F 7.0 °F 77% 30.23 in 10.0 mi North 10.4 mph - N/A   Overcast
5:52 PM 10.9 °F -2.6 °F 6.1 °F 81% 30.26 in 10.0 mi North 10.4 mph - N/A   Overcast
6:52 PM 12.0 °F -1.3 °F 7.0 °F 80% 30.26 in 10.0 mi NNW 10.4 mph - N/A   Overcast
7:52 PM 10.9 °F -0.8 °F 7.0 °F 84% 30.26 in 10.0 mi North 8.1 mph - N/A   Overcast
8:52 PM 10.9 °F -3.4 °F 6.1 °F 81% 30.26 in 10.0 mi North 11.5 mph - N/A   Overcast
9:52 PM 7.0 °F - 1.9 °F 80% 30.26 in 10.0 mi Calm Calm - N/A   Overcast
10:52 PM 3.0 °F - -0.0 °F 87% 30.27 in 10.0 mi Calm Calm - N/A   Overcast
11:52 PM -0.0 °F - -4.0 °F 83% 30.28 in 10.0 mi Calm Calm - N/A   Overcast